Gilze-Rijen, Netherlands

7:08 AM CET on December 16, 2017 (GMT +0100)
Gilze-Rijen Air Base

Weather History for EHGR - February, 2013

Change the Weather History Date:

Wednesday, February 13, 2013

  Actual Average Record
Temperature  
Mean Temperature 30 °F -  
Max Temperature 35 °F 46 °F 60 °F (1998)
Min Temperature 24 °F 34 °F 8 °F (1999)
Degree Days  
Heating Degree Days 36    
Moisture  
Dew Point 25 °F    
Average Humidity 78    
Maximum Humidity 93    
Minimum Humidity 65    
Precipitation  
Precipitation 0.00 in - - ()
Sea Level Pressure  
Sea Level Pressure 30.23 in    
Wind  
Wind Speed 4 mph ()    
Max Wind Speed 8 mph    
Max Gust Speed -    
Visibility 4.9 miles    
Events      
Averages and records for this station are not official NWS values.
T = Trace of Precipitation, MM = Missing Value Source: Averaged Metar Reports

Daily Weather History Graph

Daily Weather History Graph

Search for Another Location

Airport or City:

Trip Planner

Search our weather history database for the weather conditions in past years. The results will help you decide how hot, cold, wet, or windy it might be!

Date:

Astronomy

Feb. 13, 2013 Rise Set
Actual Time 7:57 AM CET 5:51 PM CET
Civil Twilight 7:23 AM CET 6:26 PM CET
Nautical Twilight 6:43 AM CET 7:05 PM CET
Astronomical Twilight 6:05 AM CET 7:44 PM CET
Moon 8:48 AM CET (2/13) 10:13 PM CET (2/13)
Length of Visible Light 11h 03m
Length of Day
9h 53m
Waxing Crescent, 12% of the Moon is Illuminated
Feb 13
Waxing Crescent
Feb 17
First Quarter
Feb 25
Full
Mar 4
Last Quarter
Mar 11
New

Hourly Weather History & Observations

Time (CET) Temp. Windchill Dew Point Humidity Pressure Visibility Wind Dir Wind Speed Gust Speed Precip Events Conditions
12:01 AM 30.2 °F 26.7 °F 23.0 °F 75% 30.12 in 4.3 mi WNW 3.5 mph - N/A   Haze
12:02 AM 30.2 °F 26.7 °F 23.0 °F 75% 30.12 in 5.0 mi WNW 3.5 mph - N/A   Haze
12:18 AM 30.2 °F 25.4 °F 23.0 °F 75% 30.12 in 5.0 mi NNW 4.6 mph - N/A   Haze
12:25 AM 30.2 °F 26.7 °F 23.0 °F 75% 30.12 in 5.6 mi North 3.5 mph - N/A   Haze
12:55 AM 30.2 °F 25.4 °F 23.0 °F 75% 30.12 in 5.0 mi North 4.6 mph - N/A   Haze
1:25 AM 30.2 °F 26.7 °F 23.0 °F 75% 30.12 in 5.6 mi North 3.5 mph - N/A   Haze
1:55 AM 28.4 °F 24.6 °F 23.0 °F 80% 30.12 in 5.0 mi NNE 3.5 mph - N/A   Haze
2:25 AM 28.4 °F 24.6 °F 24.8 °F 86% 30.12 in 5.0 mi NNE 3.5 mph - N/A   Haze
2:30 AM 30.2 °F 25.4 °F 24.8 °F 80% 30.12 in 4.3 mi NNE 4.6 mph - N/A   Haze
2:36 AM 30.2 °F 25.4 °F 24.8 °F 80% 30.12 in 5.0 mi NNE 4.6 mph - N/A   Haze
2:49 AM 30.2 °F 25.4 °F 24.8 °F 80% 30.15 in 5.0 mi NNE 4.6 mph - N/A   Haze
2:55 AM 30.2 °F 25.4 °F 24.8 °F 80% 30.15 in 5.0 mi NNE 4.6 mph - N/A   Haze
2:59 AM 30.2 °F 25.4 °F 24.8 °F 80% 30.15 in 5.0 mi NNE 4.6 mph - N/A   Haze
3:05 AM 28.4 °F 24.6 °F 24.8 °F 86% 30.15 in 4.3 mi NNE 3.5 mph - N/A   Overcast
3:16 AM 30.2 °F 26.7 °F 24.8 °F 80% 30.15 in 4.3 mi NNE 3.5 mph - N/A   Overcast
3:25 AM 30.2 °F 26.7 °F 26.6 °F 86% 30.15 in 4.3 mi NNE 3.5 mph - N/A   Overcast
3:29 AM 30.2 °F 26.7 °F 26.6 °F 86% 30.15 in 4.3 mi NNE 3.5 mph - N/A   Overcast
3:55 AM 30.2 °F 26.7 °F 26.6 °F 86% 30.15 in 4.3 mi NNE 3.5 mph - N/A   Overcast
4:25 AM 30.2 °F 26.7 °F 26.6 °F 86% 30.15 in 3.7 mi NNE 3.5 mph - N/A   Overcast
4:55 AM 30.2 °F 25.4 °F 26.6 °F 86% 30.15 in 3.7 mi NNE 4.6 mph - N/A   Mostly Cloudy
5:00 AM 30.2 °F 25.4 °F 26.6 °F 86% 30.15 in 3.7 mi NNE 4.6 mph - N/A   Mostly Cloudy
5:04 AM 30.2 °F 25.4 °F 26.6 °F 86% 30.15 in 3.7 mi NNE 4.6 mph - N/A   Overcast
5:25 AM 30.2 °F 25.4 °F 28.4 °F 93% 30.15 in 3.7 mi NNE 4.6 mph - N/A   Overcast
5:33 AM 30.2 °F 25.4 °F 26.6 °F 86% 30.18 in 3.7 mi NNE 4.6 mph - N/A   Overcast
5:55 AM 30.2 °F 26.7 °F 26.6 °F 86% 30.18 in 3.7 mi NNE 3.5 mph - N/A   Overcast
6:20 AM 26.6 °F 22.6 °F 24.8 °F 93% 30.18 in - NNE 3.5 mph - N/A   Mostly Cloudy
6:25 AM 28.4 °F 24.6 °F 26.6 °F 93% 30.18 in 2.2 mi NNE 3.5 mph - N/A   Mostly Cloudy
6:28 AM 28.4 °F 24.6 °F 26.6 °F 93% 30.18 in - NNE 3.5 mph - N/A   Overcast
6:35 AM 28.4 °F 24.6 °F 26.6 °F 93% 30.18 in 3.1 mi NNE 3.5 mph - N/A   Scattered Clouds
6:39 AM 26.6 °F 22.6 °F 24.8 °F 93% 30.18 in - NNE 3.5 mph - N/A   Scattered Clouds
6:47 AM 24.8 °F 19.1 °F 23.0 °F 93% 30.18 in 3.1 mi NNE 4.6 mph - N/A   Overcast
6:51 AM 24.8 °F 19.1 °F 23.0 °F 93% 30.18 in - NNE 4.6 mph - N/A   Overcast
6:55 AM 26.6 °F 21.2 °F 24.8 °F 93% 30.18 in 3.1 mi NNE 4.6 mph - N/A   Overcast
7:06 AM 28.4 °F 22.2 °F 26.6 °F 93% 30.21 in 3.7 mi NNE 5.8 mph - N/A   Overcast
7:25 AM 30.2 °F 24.3 °F 26.6 °F 86% 30.21 in 4.3 mi NNE 5.8 mph - N/A   Overcast
7:42 AM 30.2 °F 25.4 °F 26.6 °F 86% 30.21 in 5.0 mi NNE 4.6 mph - N/A   Overcast
7:55 AM 30.2 °F 25.4 °F 26.6 °F 86% 30.21 in 5.0 mi NE 4.6 mph - N/A   Overcast
8:25 AM 28.4 °F 23.3 °F 26.6 °F 93% 30.21 in 5.6 mi NE 4.6 mph - N/A   Overcast
8:55 AM 30.2 °F 24.3 °F 26.6 °F 86% 30.24 in 6.2 mi NE 5.8 mph - N/A   Overcast
9:25 AM 30.2 °F 25.4 °F 26.6 °F 86% 30.24 in 6.2 mi NE 4.6 mph - N/A   Overcast
9:55 AM 32.0 °F 25.6 °F 24.8 °F 75% 30.24 in 6.2 mi ENE 6.9 mph - N/A   Mostly Cloudy
10:25 AM 32.0 °F 27.5 °F 26.6 °F 80% 30.24 in 6.2 mi East 4.6 mph - N/A   Unknown
10:49 AM 33.8 °F 30.8 °F 26.6 °F 75% 30.24 in 6.2 mi East 3.5 mph - N/A   Unknown
10:55 AM 33.8 °F 30.8 °F 26.6 °F 75% 30.24 in 6.2 mi East 3.5 mph - N/A   Unknown
11:25 AM 33.8 °F 30.8 °F 26.6 °F 75% 30.27 in 6.2 mi ESE 3.5 mph - N/A   Scattered Clouds
11:33 AM 33.8 °F 29.6 °F 26.6 °F 75% 30.27 in 6.2 mi ESE 4.6 mph - N/A   Partly Cloudy
11:41 AM 33.8 °F 28.6 °F 26.6 °F 75% 30.27 in 6.2 mi South 5.8 mph - N/A   Scattered Clouds
11:55 AM 33.8 °F 29.6 °F 26.6 °F 75% 30.27 in 6.2 mi SSE 4.6 mph - N/A   Overcast
12:00 PM 33.8 °F 29.6 °F 26.6 °F 75% 30.27 in 6.2 mi SE 4.6 mph - N/A   Overcast
12:04 PM 33.8 °F 29.6 °F 26.6 °F 75% 30.27 in 6.2 mi SE 4.6 mph - N/A   Overcast
12:09 PM 33.8 °F 29.6 °F 26.6 °F 75% 30.27 in 6.2 mi SE 4.6 mph - N/A   Mostly Cloudy
12:13 PM 35.6 °F 31.7 °F 26.6 °F 70% 30.27 in 6.2 mi SE 4.6 mph - N/A   Mostly Cloudy
12:25 PM 35.6 °F 30.7 °F 26.6 °F 70% 30.27 in 6.2 mi SSE 5.8 mph - N/A   Overcast
12:35 PM 35.6 °F 29.9 °F 26.6 °F 70% 30.27 in 6.2 mi SE 6.9 mph - N/A   Mostly Cloudy
12:41 PM 33.8 °F 27.7 °F 24.8 °F 70% 30.27 in 6.2 mi SE 6.9 mph - N/A   Scattered Clouds
12:42 PM 33.8 °F 27.7 °F 24.8 °F 70% 30.27 in 6.2 mi SE 6.9 mph - N/A   Scattered Clouds
12:49 PM 33.8 °F 27.7 °F 24.8 °F 70% 30.27 in 6.2 mi SSE 6.9 mph - N/A   Mostly Cloudy
12:55 PM 33.8 °F 27.7 °F 24.8 °F 70% 30.27 in 6.2 mi SSE 6.9 mph - N/A   Overcast
1:25 PM 35.6 °F 30.7 °F 24.8 °F 65% 30.27 in 6.2 mi ESE 5.8 mph - N/A   Mostly Cloudy
1:30 PM 35.6 °F 31.7 °F 24.8 °F 65% 30.27 in 6.2 mi ESE 4.6 mph - N/A   Mostly Cloudy
1:43 PM 35.6 °F 30.7 °F 24.8 °F 65% 30.27 in 6.2 mi South 5.8 mph - N/A   Partly Cloudy
1:50 PM 35.6 °F 30.7 °F 24.8 °F 65% 30.27 in 6.2 mi SSW 5.8 mph - N/A   Mostly Cloudy
1:55 PM 33.8 °F 28.6 °F 24.8 °F 70% 30.27 in 6.2 mi SSW 5.8 mph - N/A   Mostly Cloudy
1:59 PM 33.8 °F 28.6 °F 26.6 °F 75% 30.27 in 6.2 mi SSW 5.8 mph - N/A   Scattered Clouds
2:25 PM 33.8 °F 29.6 °F 24.8 °F 70% 30.27 in 6.2 mi SE 4.6 mph - N/A   Overcast
2:55 PM 35.6 °F 32.8 °F 24.8 °F 65% 30.27 in 6.2 mi ESE 3.5 mph - N/A   Overcast
3:25 PM 35.6 °F 30.7 °F 24.8 °F 65% 30.27 in 6.2 mi South 5.8 mph - N/A   Overcast
3:55 PM 35.6 °F 31.7 °F 26.6 °F 70% 30.27 in 6.2 mi ESE 4.6 mph - N/A   Overcast
4:17 PM 35.6 °F 31.7 °F 24.8 °F 65% 30.27 in 6.2 mi ESE 4.6 mph - N/A   Overcast
4:25 PM 33.8 °F 29.6 °F 24.8 °F 70% 30.27 in 6.2 mi ESE 4.6 mph - N/A   Mostly Cloudy
4:55 PM 33.8 °F 30.8 °F 24.8 °F 70% 30.27 in 6.2 mi ESE 3.5 mph - N/A   Unknown
5:25 PM 33.8 °F 30.8 °F 24.8 °F 70% 30.27 in 5.6 mi SE 3.5 mph - N/A   Haze
5:45 PM 32.0 °F 28.7 °F 23.0 °F 69% 30.27 in 5.6 mi ESE 3.5 mph - N/A   Haze
5:55 PM 32.0 °F 28.7 °F 23.0 °F 69% 30.27 in 5.0 mi ESE 3.5 mph - N/A   Haze
6:12 PM 30.2 °F 25.4 °F 23.0 °F 75% 30.27 in 4.3 mi ESE 4.6 mph - N/A   Haze
6:17 PM 30.2 °F 26.7 °F 23.0 °F 75% 30.27 in 5.0 mi ESE 3.5 mph - N/A   Haze
6:18 PM 30.2 °F 26.7 °F 23.0 °F 75% 30.27 in 4.3 mi ESE 3.5 mph - N/A   Haze
6:25 PM 30.2 °F 26.7 °F 23.0 °F 75% 30.27 in 4.3 mi SE 3.5 mph - N/A   Haze
6:31 PM 30.2 °F 26.7 °F 23.0 °F 75% 30.27 in 5.0 mi SE 3.5 mph - N/A   Haze
6:40 PM 30.2 °F 26.7 °F 24.8 °F 80% 30.27 in 4.3 mi SE 3.5 mph - N/A   Haze
6:42 PM 28.4 °F 23.3 °F 21.2 °F 74% 30.27 in 5.0 mi ESE 4.6 mph - N/A   Haze
6:55 PM 30.2 °F 26.7 °F 23.0 °F 75% 30.27 in 4.3 mi ESE 3.5 mph - N/A   Haze
6:56 PM 30.2 °F 25.4 °F 23.0 °F 75% 30.27 in 5.0 mi ESE 4.6 mph - N/A   Haze
7:09 PM 30.2 °F 25.4 °F 23.0 °F 75% 30.27 in 4.3 mi SE 4.6 mph - N/A   Haze
7:15 PM 30.2 °F 25.4 °F 23.0 °F 75% 30.27 in 5.0 mi SE 4.6 mph - N/A   Haze
7:20 PM 30.2 °F 25.4 °F 23.0 °F 75% 30.27 in 4.3 mi SE 4.6 mph - N/A   Haze
7:25 PM 30.2 °F 25.4 °F 23.0 °F 75% 30.27 in 4.3 mi SE 4.6 mph - N/A   Haze
7:55 PM 30.2 °F 24.3 °F 23.0 °F 75% 30.27 in 3.7 mi SE 5.8 mph - N/A   Haze
8:25 PM 28.4 °F 21.2 °F 23.0 °F 80% 30.27 in 3.1 mi SE 6.9 mph - N/A   Haze
8:33 PM 28.4 °F 22.2 °F 23.0 °F 80% 30.27 in - SE 5.8 mph - N/A   Haze
8:37 PM 28.4 °F 22.2 °F 23.0 °F 80% 30.27 in 3.1 mi SSE 5.8 mph - N/A   Haze
8:50 PM 28.4 °F 22.2 °F 23.0 °F 80% 30.27 in 3.1 mi SE 5.8 mph - N/A   Haze
8:55 PM 28.4 °F 22.2 °F 23.0 °F 80% 30.27 in 3.1 mi SE 5.8 mph - N/A   Haze
9:12 PM 28.4 °F 22.2 °F 23.0 °F 80% 30.27 in - SE 5.8 mph - N/A   Haze
9:16 PM 28.4 °F 22.2 °F 23.0 °F 80% 30.27 in 3.1 mi SSE 5.8 mph - N/A   Haze
9:25 PM 28.4 °F 22.2 °F 23.0 °F 80% 30.27 in - SE 5.8 mph - N/A   Haze
9:39 PM 28.4 °F 22.2 °F 23.0 °F 80% 30.27 in 3.1 mi SE 5.8 mph - N/A   Haze
9:49 PM 28.4 °F 22.2 °F 23.0 °F 80% 30.27 in - SSE 5.8 mph - N/A   Haze
9:55 PM 28.4 °F 22.2 °F 23.0 °F 80% 30.27 in 3.1 mi SSE 5.8 mph - N/A   Haze
10:09 PM 28.4 °F 21.2 °F 23.0 °F 80% 30.24 in 3.1 mi SSE 6.9 mph - N/A   Haze
10:25 PM 28.4 °F 21.2 °F 23.0 °F 80% 30.24 in 3.1 mi SSE 6.9 mph - N/A   Haze
10:48 PM 28.4 °F 21.2 °F 21.2 °F 74% 30.24 in 3.7 mi SSE 6.9 mph - N/A   Haze
10:55 PM 28.4 °F 21.2 °F 21.2 °F 74% 30.24 in 3.7 mi SSE 6.9 mph - N/A   Haze
11:25 PM 28.4 °F 21.2 °F 21.2 °F 74% 30.24 in 4.3 mi SSE 6.9 mph - N/A   Haze
11:43 PM 28.4 °F 21.2 °F 21.2 °F 74% 30.24 in 5.0 mi SSE 6.9 mph - N/A   Haze
11:55 PM 28.4 °F 20.4 °F 19.4 °F 69% 30.24 in 5.0 mi SSE 8.1 mph - N/A   Haze